Location: West Cummington
(42.4920°N, 72.9680°W)
Time: 01:21:27
(UTC-04:00)

Cosmos 1703 Rocket - Visible Passes

Search period start: 31 July 2014 00:00
Search period end: 10 August 2014 00:00
Orbit: 608 x 635 km, 82.5° (Epoch: 30 July)

Date Brightness Start Highest point End Pass type
(mag) Time Alt. Az. Time Alt. Az. Time Alt. Az.
01 Aug 6.8 04:31:50 10° E 04:33:02 11° E 04:34:15 10° ENE visible
02 Aug 6.3 04:47:35 10° SE 04:50:53 21° E 04:54:11 10° NE visible
03 Aug 5.2 05:04:43 10° SSE 05:08:50 37° E 05:12:58 10° NNE visible
05 Aug 6.5 04:05:46 10° ESE 04:07:40 13° E 04:09:35 10° ENE visible
06 Aug 5.9 04:22:01 10° SE 04:25:32 23° E 04:29:03 10° NE visible
07 Aug 4.8 04:39:17 10° SSE 04:43:30 43° E 04:47:44 10° NNE visible
08 Aug 3.7 04:57:06 10° S 05:01:34 83° E 05:06:03 10° N visible
09 Aug 6.4 03:39:56 10° ESE 03:42:18 14° E 03:44:40 10° NE visible
09 Aug 3.8 05:15:23 10° SSW 05:19:44 52° W 05:24:06 10° N visible
